Regional Weather Roundup
Issued by NWS

Home | Current Version | Previous Version | Graphics & Text | Print | Product List | Glossary On
Versions: 1 2 3 4 5 6 7 8 9 10 11 12 13 14 15 16 17 18 19 20 21 22 23 24 25 26 27 28 29 30 31 32 33 34 35 36 37 38 39 40 41 42 43 44 45 46 47 48 49 50
000
ASUS43 KIND 040609
RWRIN

WEATHER ROUNDUP FOR INDIANA
NATIONAL WEATHER SERVICE INDIANAPOLIS IN
200 AM EDT MON MAY 04 2015

NOTE: "FAIR" INDICATES FEW OR NO CLOUDS BELOW 12,000 FEET WITH NO
SIGNIFICANT WEATHER AND/OR OBSTRUCTIONS TO VISIBILITY.

* - STATION DOES NOT REPORT WEATHER SUCH AS PRECIPITATION OR FOG.

+ - STATION NOT QUALITY CONTROLLED BY THE NATIONAL WEATHER SERVICE.
    USE DATA WITH CAUTION...ESPECIALLY DEWPOINT AND RELATIVE
    HUMIDITY OBSERVATIONS.

INZ001>003-010>013-019-020-040700-
NORTHWEST INDIANA

CITY           SKY/WX    TMP DP  RH WIND       PRES   REMARKS
GARY /AIRPORT/ PTCLDY    69  39  33 S9        29.95S
KNOX *+        MOCLDY    64  27  24 S10       29.99R
LA PORTE +     MOCLDY    68  46  45 S7        29.99S
6HR MIN TEMP:  68; 6HR MAX TEMP:  77;

MICHIGAN CITY+ MOCLDY    64  39  39 S9        29.97S
MONTICELLO +   PTCLDY    65  48  54 S7        30.01R
6HR MIN TEMP:  65; 6HR MAX TEMP:  74;

VALPARAISO     PTCLDY    64  44  48 S8        29.98S
6HR MIN TEMP:  64; 6HR MAX TEMP:  76; 6HR PCP: TRACE;


$$

LMZ046-743>745-040700-
SOUTHERN LAKE MICHIGAN

STATION/POSITION TIME  TEMP    WIND        PRES    WAVE
                       AIR SEA DIR/SP/G            HT
                 (UTC) (F)     (DEG/KT/KT) (MB)    (FT)
BURNS HARBOR     0600   67     180/ 13/ 17 1014.6S
MICHIGAN CITY    0600   68     150/ 15/ 19   N/A
5NW MICH CITY    0600   62 51  190/ 12/ 16   N/A     1

$$

INZ004-005-014>016-021>024-040700-
NORTH CENTRAL INDIANA

CITY           SKY/WX    TMP DP  RH WIND       PRES   REMARKS
GOSHEN         CLOUDY    68  46  45 S15       30.00S
6HR MIN TEMP:  68; 6HR MAX TEMP:  74;

LOGANSPORT +   MOCLDY    61  45  55 S8        30.03S
PERU/GRISSOM   CLOUDY    65  49  56 S10       30.02S
6HR MIN TEMP:  62; 6HR MAX TEMP:  70;

ROCHESTER +    MOCLDY    70  46  43 S10       30.02S
SOUTH BEND     LGT RAIN  68  48  48 S13       29.98S
6HR MIN TEMP:  68; 6HR MAX TEMP:  76; 6HR PCP: TRACE;

WARSAW +       CLOUDY    66  46  48 S3        30.02S

$$

INZ006>009-017-018-025>027-040700-
NORTHEAST INDIANA

CITY           SKY/WX    TMP DP  RH WIND       PRES   REMARKS
ANGOLA *+      CLEAR     64  55  72 S6        30.03R
AUBURN +       MOCLDY    64  46  52 S3        30.04S
FORT WAYNE     CLOUDY    62  49  62 S9        30.05R
6HR MIN TEMP:  60; 6HR MAX TEMP:  71;

HUNTINGTON +   CLOUDY    63  48  58 S6        30.04S
6HR MIN TEMP:  62; 6HR MAX TEMP:  73;


$$

INZ028-029-035-036-043>045-051>053-040700-
WEST CENTRAL INDIANA

CITY           SKY/WX    TMP DP  RH WIND       PRES   REMARKS
CRAWFORDSVL +  PTCLDY    58  42  55 S8        30.04S
6HR MIN TEMP:  56; 6HR MAX TEMP:  71;

GREENCASTLE +  CLEAR     55  43  62 S5        30.06S
LAFAYETTE      PTCLDY    64  47  53 S6        30.01S
6HR MIN TEMP:  64; 6HR MAX TEMP:  74;

TERRE HAUTE    CLEAR     63  49  60 S8        30.04S
6HR MIN TEMP:  62; 6HR MAX TEMP:  75;


$$

INZ030>032-037>040-046>048-054>057-064-065-040700-
CENTRAL INDIANA

CITY           SKY/WX    TMP DP  RH WIND       PRES   REMARKS
CP ATTERBURY + CLEAR     54  48  82 CALM      30.08S
FISHERS *+     PTCLDY    59  50  72 S5        30.06S
FRANKFORT +    CLEAR     60  49  65 S7        30.05S
6HR MIN TEMP:  60; 6HR MAX TEMP:  73;

GREENWOOD *+   CLEAR     59  46  63 S6        30.08R
INDIANAPOLIS   CLEAR     62  46  55 S9        30.04S
6HR MIN TEMP:  61; 6HR MAX TEMP:  73;

-EAGLE CREEK   CLEAR     60  48  64 S5        30.05S
6HR MIN TEMP:  60; 6HR MAX TEMP:  74;

MARION +       CLOUDY    60  47  63 S8        30.06R
MT COMFORT *+  PTCLDY    61  39  44 S6        30.07S
SHELBYVILLE    CLEAR     63  49  60 S7        30.07R
6HR MIN TEMP:  61; 6HR MAX TEMP:  74;

ZIONSVILLE +   CLEAR     62  46  56 S8        30.06S
6HR MIN TEMP:  62; 6HR MAX TEMP:  74;


$$

INZ033-034-041-042-049-050-058-059-040700-
EAST CENTRAL INDIANA

CITY           SKY/WX    TMP DP  RH WIND       PRES   REMARKS
MUNCIE         MOCLDY    64  48  56 S8        30.06S
6HR MIN TEMP:  64; 6HR MAX TEMP:  75;


$$

INZ060-061-067>069-081>083-085>088-040700-
SOUTHWEST INDIANA

CITY           SKY/WX    TMP DP  RH WIND       PRES   REMARKS
EVANSVILLE     CLEAR     65  49  56 CALM      30.07R
6HR MIN TEMP:  64; 6HR MAX TEMP:  76;

HUNTINGBURG *+ CLEAR     63  48  59 S5        30.09R
6HR MIN TEMP:  63; 6HR MAX TEMP:  73;

WASHINGTON +   CLEAR     56  47  70 S7        30.05F
6HR MIN TEMP:  53; 6HR MAX TEMP:  74;


$$

INZ062-063-066-070>080-084-089>092-040700-
SOUTH CENTRAL AND SOUTHEAST INDIANA

CITY           SKY/WX    TMP DP  RH WIND       PRES   REMARKS
BEDFORD +      CLEAR     61  48  63 S3        30.08R
BLOOMINGTON    CLEAR     62  48  60 S7        30.07R
6HR MIN TEMP:  61; 6HR MAX TEMP:  75;

MADISON *+     CLEAR     59  46  63 CALM      30.12R
NORTH VERNON + CLEAR     61  48  63 S5        30.10R
SEYMOUR +      CLEAR     59  50  72 S6        30.08R

$$




USA.gov is the U.S. government's official web portal to all federal, state and local government web resources and services.